63825 station(s) have been heard in the last 24 hours.

<< 348 349 350 351 352 353 354 >>
  Name/Id Latest heard Comment/Other Map
Symbol KF0NGP-D 1788429609 70cm MMDVM Voice (DMR) 446.07500MHz +0.0000MHz, APRS for DMRGateway Map
Symbol OM0NPC 1788429609 DIGIPEATER. MSG na WXYO+mesto - pocasie Map
Symbol UB3AWW-13 1788429609 Weather in PervomaySkoe: temperature=0.0 C, humidity=63.0 %, pressure=738.9 mmHg, lum=2055.2 Lux Map
Symbol R3P-1 1788429609 Repeater Echo 434.750 #88.5 | R?3P?? | Tula Map
Symbol F5ZRY-3 1788429609 F5ZRY DIGIPEATER F-45550 SAINT DENIS DE L HOTEL Map
Symbol HMSSVSIPE 1788429609 Thunderstorm Advise / Yellow exp 031700z {1BUAG Map
Symbol ED2YAP-10 1788429609 EA2RCF Lora Digi Map
Symbol SP3QYJ-10 1788429609 LoRa APRS 434.855 Batt=4.18V Map
Symbol 145.39-CW 1788429609 145.390MHz C118 -060 LRTS Map
Symbol DG7JG-11 1788429609 Das LoRa IGATE vom Stefan Map
Symbol F4JWQ-B 1788429609 70cm Voice (D-Star) 438.80000MHz -4.0000MHz Map
Symbol N9BWT-10 1788429609 CSN iGate Map
Symbol DOUGLAS 1788429609 h0b00000ODOT WX - David DouglaS - NA7Q Map
Symbol KC4JY 1788429609 .DSIP Map
Symbol PP5MPA 1788429609 147.180MHz T100 +600 - PP5MPA - Repetidora do CRB Map
Symbol IRLP-5517 1788429609 145300s118IDLE Map
Symbol IZ8GUM-10 1788429609 LoRa APRS i gate Map
Symbol ND9W-Y 1788429609 70cm MMDVM Voice (C4FM) 432.50000MHz +0.0000MHz, APRS for YSFGateway Map
Symbol KD3ABW-1 1788429609 Graywolf/0.14.12 Map
Symbol DB0SMG 1788429609 Packet-Gateway db0smg.de Map
Symbol DB0TGO-13 1788429609 [DWD 2026.09.03T09:20z] Start 2026-07-19 Map
Symbol PP5UMC 1788429609 439.500MHz T100 -5000 - PP5UMC - Repetidora do CRB Map
Symbol PP5RDB 1788429609 439.700 MHz - PP5RDB - Repetidora do CRB (DMR) Map
Symbol SV2BBO-1 1788429608 LoRa - VHF APRS bridge Map
Symbol ER-DB0AA 1788429608 439.200MHz T000 R24k SvxLink by SM0SVX (svxlink.sourceforge.net) Map
Symbol VU3FGJ-9 1788429608 Jeep Map
Symbol KD6UCA-13 1788429608 433.450MHz Winlink VARA FM Wide Gateway Map
Symbol P-AD2FB 1788429608 DAPNET POCSAG Transmitter(048C)(ONLINE) Map
Symbol ER-DM0HR 1788429608 438.925MHz T000 R13k [ThrLink] SvxLink Relais Eisenach Map
Symbol DL4WF-D 1788429608 70cm MMDVM Voice (DMR) 433.45000MHz -3.0750MHz, APRS for DMRGateway Map
Symbol W8IRA-VB 1788429608 145.290-0.6 MHz PL 103.5 Vanderbilt, MI Map
Symbol KF0REO-D 1788429608 70cm MMDVM Voice (DMR) 439.45000MHz -9.0000MHz, APRS for DMRGateway Map
Symbol 2E0XVX P 1788429608 70cm Voice (D-Star) 440.00000MHz -7.6000MHz Map
Symbol P-DK5BM 1788429608 DAPNET POCSAG Transmitter(0123456789ABCDEF)(ONLINE) Map
Symbol OK1PJV-2 1788429608 Rx-only iGate Map
Symbol IRLP-1126 1788429608 147.330MHz PL tone 100 Prefix 0 IDLE Map
Symbol IT9KWW-B 1788429608 70cm Voice (D-Star) 430.82500MHz +0.0000MHz Map
Symbol ESTA 1788429608 ESTA 030950Z 18006KT 8000 -RA FEW002 SCT009 BKN016 16/15 Q1010 Map
Symbol KGRR 1788429608 135.650 MHz Gerald R. Ford Intl. Airport Map
Symbol IW3BRC-6 1788429608 QTC Mailcast Pi Node Map
Symbol P-DO0LP 1788429608 DAPNET POCSAG Transmitter(16B)(ONLINE) Map
Symbol MM8FKF B 1788429608 70cm Voice (D-Star) 433.50000MHz +0.0000MHz Map
Symbol DK1AN-13 1788429608 B=100 Map
Symbol M7JBP-D 1788429608 70cm MMDVM Voice (DMR) 433.55000MHz +0.0000MHz, APRS for DMRGateway Map
Symbol DO7SRB-10 1788429608 LoRa APRS Digi Map
Symbol WB6JHI-1 1788429608 Fill-In Digi+iGate, Monte Sereno Map
Symbol N8UMW B 1788429608 440 Voice 442.00000MHz +5.0000MHz Map
Symbol EA5FC-D 1788429608 70cm MMDVM Voice (DMR) 434.50000MHz +0.0000MHz, APRS for DMRGateway Map
Symbol OK2MCT-12 1788429608 LoRa iGate Olomouc - Sokolovska Map
Symbol KC2PP-R 1788429608 70cm MMDVM Voice (C4FM) 444.50000MHz +5.0000MHz, KC2PP_Pi-Star_RPT Map